RASAT

Satellite information

Favourite Embed

Satellite Type and Status

PAYLOADIN ORBIT

Key statistics

Satellite RASAT at a glance.

Uptime

5181

Days in orbit

Revolutions

≈ 14.7

Per day

Orbit

SSO

Sun Synchronous Orbit

Inclination

98.1

Latest

Satellite identification and parameters

Extended collection of information and parameters for RASAT.

Object identification

Identified? True

Debris? False

Object name: RASAT

International designator: 2011-044D

Object number (NORAD): 37791

Object ID (CCSDS): 37791

Country: TURKEY (TURK)

Current information (Y/N): Y

RCS size: MEDIUM

Orbital parameters

Period: 98.106 minutes

Inclination: 98.0668 deg

SMA: 7046.249 km

Apoapsis: 682.114 km

Periapsis: 654.113 km

RAAN: 26.0112 deg

Eccentricy: 0.00198695

Argument of periapsis: 221.5858 deg

Mean anomaly: 311.7461 deg

Mean motion: 14.67796384 rev/day

Mean motion (dot): 0.00001083 rev/day2

B* drag term: 0.00019795571 1/REarth

Two-line elements (TLE)

Creation date: Oct. 23, 2025, 2:46 a.m.

Reference frame: TEME

Reference center: EARTH

Epoch: Oct. 23, 2025, 12:01 a.m. UTC

TLE line 0: 0 RASAT

TLE line 1: 1 37791U 11044D 25296.00101115 .00001083 00000-0 19796-3 0 9997

TLE line 2: 2 37791 98.0668 26.0112 0019870 221.5858 311.7461 14.67796384758383

Live tracking on map

Real-time ground track for satellite RASAT.

In-orbit conjunctions

There are no conjunctions computed for RASAT, at the moment. Check back to stay up to date, as we update our databases every day.

Go to all conjunctions

Associated space launch

RASAT was lifted into orbit during the mission ‘Dnepr 1 | Sich-2’, on board a Dnepr space rocket.

The launch took place on Aug. 17, 2011, 7:12 a.m. from 370/13.

For more information about the launch, click the button.

Launch to space Dnepr 1 | Sich-2
Dnepr 1 | Sich-2

Agency: N/A

Status: Launch Successful

Launch date: Aug. 17, 2011, 7:12 a.m. UTC

Rocket: Dnepr

Launch pad: 370/13

Location: Dombarovskiy, Russian Federation

...

Latest news about this satellite

There are no fresh news available about this satellite. Check back as we update our databases every day.


Newsletter sign-up

Weekly statistics, charts and insights to help you stay on top of the space industry.